Regional Weather Roundup
Issued by NWS

Home | Current Version | Previous Version | Text Only | Print | Product List | Glossary Off
Versions: 1 2 3 4 5 6 7 8 9 10 11 12 13 14 15 16 17 18 19 20 21 22 23 24 25 26 27 28 29 30 31 32 33 34 35 36 37 38 39 40 41 42 43 44 45 46 47 48 49 50

000
ASUS43 KBIS 171710
RWRND

NORTH DAKOTA REGIONAL WEATHER ROUNDUP
NATIONAL WEATHER SERVICE BISMARCK ND
1100 AM CST SAT FEB 17 2018

NOTE: "FAIR" INDICATES FEW OR NO CLOUDS BELOW 12,000 FEET WITH NO
SIGNIFICANT WEATHER AND/OR OBSTRUCTIONS TO VISIBILITY.


NDZ001>003-009>011-017-171800-
NORTHWEST NORTH DAKOTA

CITY           SKY/WX    TMP DP  RH WIND       PRES   REMARKS
WILLISTON      SUNNY     13   5  70 W16       30.00R WCI  -3
MINOT          PTSUNNY   19   9  65 W10       29.93R WCI   7
MINOT AFB      PTSUNNY   18   9  68 W15       29.91S WCI   3
$$

NDZ018>021-031>035-040>046-171800-
SOUTHWEST NORTH DAKOTA

CITY           SKY/WX    TMP DP  RH WIND       PRES   REMARKS
BISMARCK       MOSUNNY   23  12  62 NW14G23   30.00R WCI  11
DICKINSON      PTSUNNY   15  10  80 W15       29.95R WCI   0
GARRISON         N/A     16   9  74 W15       29.95R WCI   1
HETTINGER ARPT SUNNY     15   9  76 W12       30.01R WCI   2
$$

NDZ004>008-012>016-024-026-027-054-171800-
NORTHEAST NORTH DAKOTA

CITY           SKY/WX    TMP DP  RH WIND       PRES   REMARKS
GRAND FORKS    FAIR      20  10  65 NW17      29.90R WCI   5
GRND FRKS AFB  FAIR      18   6  58 NW16G24   29.90R WCI   3
DEVILS LAKE    FAIR      12   4  70 W14       29.91R WCI  -3
$$

NDZ022-023-025-028>030-036>039-047>053-171800-
SOUTHEAST NORTH DAKOTA

CITY           SKY/WX    TMP DP  RH WIND       PRES   REMARKS
FARGO          FAIR      21  14  74 NW18      29.92R WCI   6
JAMESTOWN      SUNNY     20  10  65 NW22      29.93R WCI   3
$$





USA.gov is the U.S. government's official web portal to all federal, state and local government web resources and services.